#timestamp,LO_Frequency,Hit,StdDev 
1566612015.4,286046998.8,N
1566612035.3,286046999.5,N
1566612055.1,286047000.7,N
1566612075.8,286047002.6,N
1566612095.7,286047001.2,N
1566612115.5,286047002.1,N
1566612135.4,286047002.3,N
1566612155.2,286047000.4,N
1566612175.0,286047000.5,N
1566612175.9,286047000.5,N
1566612195.8,286046999.8,N
1566612215.6,286046999.9,N
1566612235.5,286047000.2,N
1566612255.3,286047000.5,N
1566612275.1,286046998.5,N
1566612295.9,286046998.9,N
1566612315.7,286046998.6,N
1566612335.5,286046999.4,N
1566612355.4,286046998.4,N
1566612375.2,286046996.6,N
1566612395.1,286046998.2,N
1566612396.0,286046998.2,N
1566612415.8,286046998.9,N
1566612435.6,286046998.2,N
1566612455.5,286047001.2,N
1566612475.3,286047002.6,N
1566612495.1,286047000.3,N
1566612515.9,286047001.5,N
1566612535.7,286047004.1,N
1566612555.6,286047004.1,N
1566612575.4,286047003.8,N
1566612595.2,286047001.8,N
1566612615.1,286047000.3,N
1566612616.0,286047000.3,N
1566612635.8,286046998.7,N
1566612655.7,286046998.2,N
1566612675.5,286046998.2,N
1566612695.3,286046999.9,N
1566612715.2,286046998.1,N
1566612735.0,286047001.1,N
1566612735.9,286047001.1,N
1566612755.7,286047001.0,N
1566612775.6,286047002.6,N
1566612795.4,286047001.8,N
1566612815.3,286047001.7,N
1566612835.1,286047004.0,N
1566612836.0,286047004.0,N
1566612855.8,286047001.6,N
1566612875.7,286047001.3,N
1566612895.5,286047002.3,N
1566612915.3,286047002.6,N
1566612935.2,286047002.4,N
1566612955.0,286047004.0,N
1566612955.9,286047004.0,N
1566612975.8,286047002.0,N
1566612995.6,286047003.1,N
1566613015.4,286047001.8,N
1566613035.3,286047002.5,N
1566613055.1,286047001.4,N
1566613075.9,286047004.3,N
1566613095.7,286047004.2,N
1566613115.5,286047006.0,Y
1566613135.4,286047002.3,P
1566613155.2,286047002.7,P
1566613175.0,286047001.5,P
1566613176.0,286047001.5,Y
1566613195.8,286046998.2,P
1566613215.6,286047000.4,N
1566613235.5,286047000.1,N
1566613255.3,286047000.4,N
1566613275.1,286047002.5,N
1566613295.9,286047002.0,N
1566613315.7,286047002.2,N
1566613335.5,286047000.9,N
1566613355.4,286047000.0,N
1566613375.2,286046998.1,N
1566613395.1,286046999.1,N
1566613396.0,286046999.1,N
1566613415.8,286046996.5,N
1566613435.6,286046998.2,N
1566613455.5,286047001.0,N
1566613475.3,286047000.3,N
1566613495.2,286047000.3,N
1566613515.9,286047004.4,N
1566613535.7,286047001.8,N
1566613555.6,286047001.7,N
1566613575.4,286047001.5,N
1566613595.2,286047001.5,N
1566613615.1,286047002.7,N
1566613616.0,286047002.7,N
1566613635.8,286047000.7,N
1566613655.7,286047001.9,N
1566613675.5,286047001.7,N
1566613695.3,286047002.4,N
1566613715.2,286047002.3,N
1566613735.0,286046998.1,N
1566613735.9,286046998.1,N
1566613755.7,286047000.4,N
1566613775.6,286047000.3,N
1566613795.4,286047000.8,N
1566613815.3,286047001.2,N
1566613835.1,286046999.9,N
1566613836.0,286046999.9,N
1566613855.8,286047000.3,N
1566613875.7,286047002.2,N
1566613895.5,286047004.3,N
1566613915.3,286047003.4,N
1566613935.2,286047004.2,N
1566613955.0,286047001.4,N
1566613955.9,286047001.4,N
1566613975.8,286047004.0,N
1566613995.6,286047004.2,N
1566614015.4,286047003.0,N
1566614035.3,286047004.4,N
1566614055.1,286047002.8,N
1566614075.8,286047000.4,N
1566614095.7,286046999.8,N
1566614115.5,286047000.9,N
1566614135.4,286046999.3,N
1566614155.2,286046998.6,N
1566614175.0,286046996.5,N
1566614175.9,286046996.5,N
1566614195.8,286046997.7,N
1566614215.6,286046997.2,N
1566614235.5,286046998.5,N
1566614255.3,286046998.7,N
1566614275.1,286046998.7,N
1566614295.9,286047001.2,N
1566614315.7,286047000.8,N
1566614335.5,286047002.7,N
1566614355.4,286047003.5,N
1566614375.2,286047003.7,N
1566614395.1,286047003.4,N
1566614396.0,286047003.4,N
1566614415.8,286047001.3,N
1566614435.6,286047004.0,N
1566614455.5,286047002.6,N
1566614475.3,286047002.0,N
1566614495.1,286047002.3,N
1566614515.9,286047004.3,N
1566614535.7,286047004.1,N
1566614555.6,286047002.2,N
1566614575.4,286047004.2,N
1566614595.2,286047002.2,N
1566614615.1,286047000.1,N
1566614616.0,286047000.1,N
1566614635.8,286047000.3,N
1566614655.6,286047000.5,N
1566614675.5,286047000.2,N
1566614695.3,286047000.0,N
1566614715.2,286047002.8,N
1566614735.9,286046999.8,N
1566614755.7,286046999.4,N
1566614775.6,286046999.5,N
1566614795.4,286047001.2,N
1566614815.2,286046999.7,N
1566614835.1,286047001.1,N
1566614836.0,286047001.1,N
1566614855.8,286047000.1,N
1566614875.7,286047002.3,N
1566614895.5,286047000.7,N
1566614915.3,286046998.8,N
1566614935.2,286046998.8,N
1566614955.0,286047000.9,N
1566614955.9,286047000.9,N
1566614975.8,286046998.7,N
1566614995.6,286047000.8,N
1566615015.4,286046998.3,N
1566615035.3,286047000.4,N
1566615055.1,286047000.0,N
1566615075.8,286047000.8,N
1566615095.7,286047001.2,N
1566615115.5,286047001.2,N
1566615135.4,286047001.0,N
1566615155.2,286046999.9,N
1566615175.0,286047000.8,N
1566615175.9,286047000.8,N
1566615195.8,286047001.0,N
1566615215.6,286047002.1,N
1566615235.4,286046999.7,N
1566615255.3,286047000.5,N
1566615275.1,286046999.9,N
1566615295.9,286047002.8,N
1566615315.7,286047001.6,N
1566615335.5,286047001.7,N
1566615355.4,286047004.0,Y
1566615375.2,286047002.6,P
1566615395.0,286047002.5,N
1566615396.0,286047002.5,N
1566615415.8,286047000.1,N
1566615435.6,286047002.6,N
1566615455.5,286046998.5,N
1566615475.3,286047001.2,N
1566615495.1,286046999.8,N
1566615515.9,286046999.9,N
1566615535.7,286046998.2,N
1566615555.5,286047000.6,N
1566615575.4,286047002.1,N
1566615595.2,286047000.2,N
